sat.trackr.live / text

‹ back to catalog

STARLINK-1548

NORAD 46054 · 2020-055AD

PAYLOAD ACTIVE UNKNOWN

§ Identity

Operator
Country
US
Launch date
2020-08-07
Launch site
AFETR
Launch vehicle
Mass (kg)
RCS (m²)

Purposes: comms

External: N2YO · Heavens-Above · Gunter

§ Orbital elements

Epoch: 2026-05-25T05:01:13.101024Z

Period
94.01 min
Inclination
53.1581°
Eccentricity
0.0001097
Mean motion
15.31719040 rev/d
Perigee alt
469.9 km
Apogee alt
471.4 km
Semi-major
6,848.8 km
B*
1.6428e-4
RAAN
118.1961°
Arg perigee
88.9430°
Mean anomaly
271.1697°
Rev number
32,079

§ Raw data

STARLINK-15481 46054U 20055AD  26145.20917941  .00004739  00000+0  16428-3 0  99982 46054  53.1581 118.1961 0001097  88.9430 271.1697 15.31719040320795

JSON: /api/v1/satellites/46054 · /tle

For live sub-satellite position, see the globe view (requires WebGL).

§ Visibility from observer

Set your observer location to see the next 7 days of passes ≥ 10°. The values pass through the URL so the page stays shareable.

No JS? Fill the form by hand. The geolocation button needs JavaScript.